Regional Weather Roundup
Issued by NWS Albany, NY

Home | Current Version | Previous Version | Graphics & Text | Print | Product List | Glossary Off
Versions: 1 2 3 4 5 6 7 8 9 10 11 12 13 14 15 16 17 18 19 20 21 22 23 24 25 26 27 28 29 30 31 32 33 34 35 36 37 38 39 40 41 42 43 44 45 46 47 48 49 50

000
ASUS41 KALY 172010
RWRALY

NEW YORK STATE HOURLY WEATHER ROUNDUP
NATIONAL WEATHER SERVICE ALBANY NY
400 PM EDT TUE OCT 17 2017

NOTE: "FAIR" INDICATES FEW OR NO CLOUDS BELOW 12,000 FEET WITH NO
SIGNIFICANT WEATHER AND/OR NO OBSTRUCTIONS TO VISIBILITY.

NYZ032-033-038>043-046>054-057>066-NYZ062>081-082-084-172100-
EAST


CITY           SKY/WX    TMP DP  RH WIND       PRES   REMARKS
ALBANY         SUNNY     57  31  37 S10       30.21F
GLENS FALLS    SUNNY     55  30  38 S13       30.18F
POUGHKEEPSIE   SUNNY     57  31  37 SW7       30.23F
NEWBURGH       SUNNY     57  36  44 SW7       30.25F
MONTGOMERY     SUNNY     59  36  42 SW10      30.22F
WHITE PLAINS   SUNNY     58  29  33 CALM      30.25F
ISLIP          SUNNY     56  28  34 E3        30.26F
NEW YORK CITY  SUNNY     61  29  29 VRB5      30.26F
CENTRAL PARK   SUNNY     58  33  39 W5        30.29F
$$

NYZ005>009-017-018-044>046-055-056-172100-
CENTRAL


CITY           SKY/WX    TMP DP  RH WIND       PRES   REMARKS
FULTON         SUNNY     61  39  44 S9        30.15S
SYRACUSE       MOSUNNY   61  38  42 W10       30.16F
ROME           SUNNY     59  35  40 SW8       30.17F
ELMIRA         SUNNY     62  37  39 SW9G21    30.17F
BINGHAMTON     SUNNY     55  31  39 SW8       30.20S
MONTICELLO     SUNNY     56  27  32 VRB7      30.23F
$$

NYZ026>034-041>043-087-172100-
NORTH


CITY           SKY/WX    TMP DP  RH WIND       PRES   REMARKS
WATERTOWN      PTSUNNY   60  43  53 SW16G22   30.11F
FORT DRUM      NOT AVBL
OGDENSBURG     FAIR      58  43  58 SW16G26   30.06F
MASSENA        CLOUDY    57  40  52 SW17G28   30.06F
SARANAC LAKE   CLOUDY    53  32  44 SW15G26   30.09F
PLATTSBURGH    MOSUNNY   54  34  46 S17G25    30.09F
$$

NYZ001>004-010>016-019>021-085-172100-
WEST


CITY           SKY/WX    TMP DP  RH WIND       PRES   REMARKS
NIAGARA FALLS  MOSUNNY   64  47  53 SW22G39   30.12F
BUFFALO        MOSUNNY   61  45  55 SW22G39   30.14S
DUNKIRK        MOSUNNY   62  43  49 W15G26    30.18S
JAMESTOWN      SUNNY     59  39  47 SW13G18   30.20F
WELLSVILLE     SUNNY     60  33  36 SW14G20   30.20F
ROCHESTER      MOSUNNY   64  38  38 W18G24    30.14R
$$

             KEY
       WCI = WIND CHILL INDEX
       VSB = VISIBILITY
       HX  = HEAT INDEX
$$



USA.gov is the U.S. government's official web portal to all federal, state and local government web resources and services.